TA5KA Weather Reports


time (UTC)temp
C
wind
direction
speed
KPH
gust
KPH
rain 1hr
cm
rain 24hr
cm
rain mn
cm
humidity
%
barometer
mb
20260508121916 21 292 3.2 4.8 0.00 0.00 0.00 35 1021.0
20260508121032 21 292 3.2 4.8 0.00 0.00 0.00 35 1021.0
20260508120915 21 292 3.2 4.8 0.00 0.00 0.00 35 1021.0
20260508120030 21 296 3.2 3.2 0.00 0.00 0.00 35 1021.0
20260508115913 21 296 3.2 3.2 0.00 0.00 0.00 35 1021.0
20260508115028 21 296 3.2 3.2 0.00 0.00 0.00 35 1021.0
20260508114912 21 296 3.2 3.2 0.00 0.00 0.00 35 1021.0
20260508114027 21 296 3.2 3.2 0.00 0.00 0.00 35 1021.0
20260508113911 21 296 3.2 3.2 0.00 0.00 0.00 35 1021.0
20260508113026 20 296 3.2 3.2 0.00 0.00 0.00 30 1022.0
20260508112909 20 296 3.2 3.2 0.00 0.00 0.00 30 1022.0
20260508112024 20 296 3.2 3.2 0.00 0.00 0.00 30 1022.0
20260508111907 20 296 3.2 3.2 0.00 0.00 0.00 30 1022.0
20260508111022 20 296 3.2 3.2 0.00 0.00 0.00 30 1022.0
20260508110906 20 296 3.2 3.2 0.00 0.00 0.00 30 1022.0
20260508110021 20 299 1.6 3.2 0.00 0.00 0.00 30 1022.0
20260508105905 20 299 1.6 3.2 0.00 0.00 0.00 30 1022.0
20260508105020 20 299 1.6 3.2 0.00 0.00 0.00 30 1022.0
20260508104903 20 299 1.6 3.2 0.00 0.00 0.00 30 1022.0
20260508104019 20 299 1.6 3.2 0.00 0.00 0.00 30 1022.0
20260508103901 20 299 1.6 3.2 0.00 0.00 0.00 30 1022.0
20260508103018 19 299 1.6 3.2 0.00 0.00 0.00 40 1022.0
20260508102900 19 299 1.6 3.2 0.00 0.00 0.00 40 1022.0
20260508102016 18 299 1.6 3.2 0.00 0.00 0.00 40 1022.0
20260508101858 18 299 1.6 3.2 0.00 0.00 0.00 40 1022.0
20260508101015 18 300 1.6 3.2 0.00 0.00 0.00 40 1022.0
20260508100857 18 300 1.6 3.2 0.00 0.00 0.00 40 1022.0
20260508100014 18 300 1.6 3.2 0.00 0.00 0.00 40 1022.0
20260508095855 18 300 1.6 3.2 0.00 0.00 0.00 40 1022.0
20260508095013 19 300 1.6 3.2 0.00 0.00 0.00 40 1022.0
20260508094854 19 300 1.6 3.2 0.00 0.00 0.00 40 1022.0
20260508094011 18 300 1.6 3.2 0.00 0.00 0.00 39 1023.0
20260508093852 18 300 1.6 3.2 0.00 0.00 0.00 39 1023.0
20260508093009 18 300 1.6 3.2 0.00 0.00 0.00 39 1023.0
20260508092851 18 300 1.6 3.2 0.00 0.00 0.00 39 1023.0
20260508092008 18 300 1.6 3.2 0.00 0.00 0.00 39 1023.0
20260508091849 18 300 1.6 3.2 0.00 0.00 0.00 39 1023.0
20260508091007 18 300 1.6 3.2 0.00 0.00 0.00 39 1023.0
20260508090849 18 300 1.6 3.2 0.00 0.00 0.00 39 1023.0
20260508090005 18 325 1.6 1.6 0.00 0.00 0.00 39 1023.0
20260508085847 18 325 1.6 1.6 0.00 0.00 0.00 39 1023.0
20260508085004 18 325 1.6 1.6 0.00 0.00 0.00 39 1023.0
20260508084845 18 325 1.6 1.6 0.00 0.00 0.00 39 1023.0
20260508084003 17 325 1.6 1.6 0.00 0.00 0.00 48 1023.0
20260508083843 17 325 1.6 1.6 0.00 0.00 0.00 48 1023.0
20260508083002 17 325 1.6 1.6 0.00 0.00 0.00 48 1023.0
20260508082842 17 325 1.6 1.6 0.00 0.00 0.00 48 1023.0
20260508082000 17 325 1.6 1.6 0.00 0.00 0.00 48 1023.0
20260508081841 17 325 1.6 1.6 0.00 0.00 0.00 48 1023.0
20260508080959 17 325 1.6 1.6 0.00 0.00 0.00 48 1023.0
20260508080840 17 325 1.6 1.6 0.00 0.00 0.00 48 1023.0
20260508075958 17 10 1.6 1.6 0.00 0.00 0.00 48 1023.0
20260508075839 17 10 1.6 1.6 0.00 0.00 0.00 48 1023.0
20260508074956 17 10 1.6 1.6 0.00 0.00 0.00 48 1023.0
20260508074837 17 10 1.6 1.6 0.00 0.00 0.00 48 1023.0
20260508073955 17 10 1.6 1.6 0.00 0.00 0.00 48 1023.0
20260508073836 17 10 1.6 1.6 0.00 0.00 0.00 48 1023.0
20260508072953 15 10 1.6 1.6 0.00 0.00 0.00 59 1023.0
20260508072835 15 10 1.6 1.6 0.00 0.00 0.00 59 1023.0
20260508071952 15 284 1.6 4.8 0.00 0.00 0.00 59 1023.0
20260508071834 15 284 1.6 4.8 0.00 0.00 0.00 59 1023.0
20260508070951 15 284 1.6 4.8 0.00 0.00 0.00 59 1023.0
20260508070832 15 284 1.6 4.8 0.00 0.00 0.00 59 1023.0
20260508065950 15 252 1.6 4.8 0.00 0.00 0.00 59 1023.0
20260508065830 15 252 1.6 4.8 0.00 0.00 0.00 59 1023.0
20260508064948 15 252 1.6 4.8 0.00 0.00 0.00 59 1023.0
20260508064829 15 252 1.6 4.8 0.00 0.00 0.00 59 1023.0
20260508063946 15 252 1.6 4.8 0.00 0.00 0.00 59 1023.0
20260508063827 15 252 1.6 4.8 0.00 0.00 0.00 59 1023.0
20260508062945 13 252 1.6 4.8 0.00 0.00 0.00 67 1023.0
20260508062826 13 252 1.6 4.8 0.00 0.00 0.00 67 1023.0
20260508061943 11 252 1.6 4.8 0.00 0.00 0.00 71 1023.0
20260508061825 11 252 1.6 4.8 0.00 0.00 0.00 71 1023.0
20260508060942 11 252 1.6 4.8 0.00 0.00 0.00 71 1023.0
20260508060824 11 252 1.6 4.8 0.00 0.00 0.00 71 1023.0
20260508055940 11 137 1.6 4.8 0.00 0.00 0.00 71 1023.0
20260508055822 11 137 1.6 4.8 0.00 0.00 0.00 71 1023.0
20260508054939 11 137 1.6 4.8 0.00 0.00 0.00 71 1023.0
20260508054820 11 137 1.6 4.8 0.00 0.00 0.00 71 1023.0
20260508053938 11 137 1.6 4.8 0.00 0.00 0.00 71 1023.0
20260508053819 11 137 1.6 4.8 0.00 0.00 0.00 71 1023.0
20260508052937 13 137 1.6 4.8 0.00 0.00 0.00 48 1021.0
20260508052817 13 137 1.6 4.8 0.00 0.00 0.00 48 1021.0
20260508051935 13 137 1.6 4.8 0.00 0.00 0.00 48 1021.0
20260508051816 13 137 1.6 4.8 0.00 0.00 0.00 48 1021.0
20260508050934 8 102 1.6 4.8 0.00 0.00 0.00 81 1022.0
20260508050815 8 102 1.6 4.8 0.00 0.00 0.00 81 1022.0
20260508045932 8 102 1.6 4.8 0.00 0.00 0.00 81 1022.0
20260508045813 8 102 1.6 4.8 0.00 0.00 0.00 81 1022.0
20260508044931 7 102 1.6 4.8 0.00 0.00 0.00 81 1022.0
20260508044811 7 102 1.6 4.8 0.00 0.00 0.00 81 1022.0
20260508043929 7 102 1.6 4.8 0.00 0.00 0.00 81 1022.0
20260508043810 7 102 1.6 4.8 0.00 0.00 0.00 81 1022.0
20260508042928 6 102 1.6 4.8 0.00 0.00 0.00 93 1022.0
20260508042809 6 102 1.6 4.8 0.00 0.00 0.00 93 1022.0
20260508041926 6 102 1.6 4.8 0.00 0.00 0.00 93 1022.0
20260508041807 6 102 1.6 4.8 0.00 0.00 0.00 93 1022.0
20260508040925 6 102 1.6 4.8 0.00 0.00 0.00 93 1022.0
20260508040806 6 102 1.6 4.8 0.00 0.00 0.00 93 1022.0
20260508035924 6 97 1.6 1.6 0.00 0.00 0.00 93 1022.0
20260508035805 6 97 1.6 1.6 0.00 0.00 0.00 93 1022.0
20260508034922 6 97 1.6 1.6 0.00 0.00 0.00 93 1022.0
20260508034804 6 97 1.6 1.6 0.00 0.00 0.00 93 1022.0
20260508033921 6 97 1.6 1.6 0.00 0.00 0.00 93 1022.0
20260508033802 6 97 1.6 1.6 0.00 0.00 0.00 93 1022.0
20260508032919 6 97 1.6 1.6 0.00 0.00 0.00 87 1022.0
20260508032801 6 97 1.6 1.6 0.00 0.00 0.00 87 1022.0
20260508031917 6 97 1.6 1.6 0.00 0.00 0.00 87 1022.0
20260508031800 6 97 1.6 1.6 0.00 0.00 0.00 87 1022.0
20260508030916 6 97 1.6 1.6 0.00 0.00 0.00 87 1022.0
20260508030758 6 97 1.6 1.6 0.00 0.00 0.00 87 1022.0
20260508025915 6 26 1.6 1.6 0.00 0.00 0.00 87 1022.0
20260508025756 6 26 1.6 1.6 0.00 0.00 0.00 87 1022.0
20260508024914 6 26 1.6 1.6 0.00 0.00 0.00 87 1022.0
20260508024755 6 26 1.6 1.6 0.00 0.00 0.00 87 1022.0
20260508023912 6 26 1.6 1.6 0.00 0.00 0.00 87 1022.0
20260508023754 6 26 1.6 1.6 0.00 0.00 0.00 87 1022.0
20260508022911 5 26 1.6 1.6 0.00 0.00 0.00 93 1022.0
20260508022752 5 26 1.6 1.6 0.00 0.00 0.00 93 1022.0
20260508021910 5 26 1.6 1.6 0.00 0.00 0.00 93 1022.0
20260508021751 5 26 1.6 1.6 0.00 0.00 0.00 93 1022.0
20260508020908 5 26 1.6 1.6 0.00 0.00 0.00 93 1022.0
20260508020750 5 26 1.6 1.6 0.00 0.00 0.00 93 1022.0
20260508015907 5 295 1.6 4.8 0.00 0.00 0.00 93 1022.0
20260508015748 5 295 1.6 4.8 0.00 0.00 0.00 93 1022.0
20260508014905 5 295 1.6 4.8 0.00 0.00 0.00 93 1022.0
20260508014747 5 295 1.6 4.8 0.00 0.00 0.00 93 1022.0
20260508013903 6 295 1.6 4.8 0.00 0.00 0.00 87 1022.0
20260508013746 6 295 1.6 4.8 0.00 0.00 0.00 87 1022.0
20260508012902 6 295 1.6 4.8 0.00 0.00 0.00 87 1022.0
20260508012745 6 295 1.6 4.8 0.00 0.00 0.00 87 1022.0
20260508011900 6 295 1.6 4.8 0.00 0.00 0.00 87 1022.0
20260508011744 6 295 1.6 4.8 0.00 0.00 0.00 87 1022.0
20260508010900 6 295 1.6 4.8 0.00 0.00 0.00 87 1022.0
20260508010742 6 295 1.6 4.8 0.00 0.00 0.00 87 1022.0
20260508005858 6 106 1.6 4.8 0.00 0.00 0.00 87 1022.0
20260508005741 6 106 1.6 4.8 0.00 0.00 0.00 87 1022.0
20260508004856 6 106 1.6 4.8 0.00 0.00 0.00 87 1022.0
20260508004739 6 106 1.6 4.8 0.00 0.00 0.00 87 1022.0
20260508003855 6 106 1.6 4.8 0.00 0.00 0.00 87 1022.0
20260508003738 6 106 1.6 4.8 0.00 0.00 0.00 87 1022.0
20260508002854 6 106 1.6 4.8 0.00 0.00 0.00 87 1022.0
20260508002737 6 106 1.6 4.8 0.00 0.00 0.00 87 1022.0
20260508001853 6 106 1.6 4.8 0.00 0.00 0.00 93 1022.0
20260508001736 6 106 1.6 4.8 0.00 0.00 0.00 93 1022.0
20260508000735 6 106 1.6 4.8 0.00 0.00 0.00 93 1022.0
20260507235850 6 96 1.6 3.2 0.00 0.00 0.00 93 1022.0
20260507235733 6 96 1.6 3.2 0.00 0.00 0.00 93 1022.0
20260507234849 6 96 1.6 3.2 0.00 0.00 0.00 93 1022.0
20260507234731 6 96 1.6 3.2 0.00 0.00 0.00 93 1022.0
20260507233847 6 96 1.6 3.2 0.00 0.00 0.00 93 1022.0
20260507233730 6 96 1.6 3.2 0.00 0.00 0.00 93 1022.0
20260507232846 7 96 1.6 3.2 0.00 0.00 0.00 87 1022.0
20260507232729 7 96 1.6 3.2 0.00 0.00 0.00 87 1022.0
20260507231845 7 96 1.6 3.2 0.00 0.00 0.00 87 1022.0
20260507231727 7 96 1.6 3.2 0.00 0.00 0.00 87 1022.0
20260507230843 7 96 1.6 3.2 0.00 0.00 0.00 87 1022.0
20260507230726 7 96 1.6 3.2 0.00 0.00 0.00 87 1022.0
20260507225841 7 101 1.6 4.8 0.00 0.00 0.00 87 1022.0
20260507225724 7 101 1.6 4.8 0.00 0.00 0.00 87 1022.0
20260507224840 7 101 1.6 4.8 0.00 0.00 0.00 87 1022.0
20260507224723 7 101 1.6 4.8 0.00 0.00 0.00 87 1022.0
20260507223839 7 101 1.6 4.8 0.00 0.00 0.00 87 1022.0
20260507223722 7 101 1.6 4.8 0.00 0.00 0.00 87 1022.0
20260507222838 8 101 1.6 4.8 0.00 0.00 0.00 87 1022.0
20260507222720 8 101 1.6 4.8 0.00 0.00 0.00 87 1022.0
20260507221836 8 101 1.6 4.8 0.00 0.00 0.00 87 1022.0
20260507221719 8 101 1.6 4.8 0.00 0.00 0.00 87 1022.0
20260507220835 8 101 1.6 4.8 0.00 0.00 0.00 87 1022.0
20260507220717 8 101 1.6 4.8 0.00 0.00 0.00 87 1022.0
20260507215834 8 101 1.6 4.8 0.00 0.00 0.00 60 1020.0
20260507215716 8 101 1.6 4.8 0.00 0.00 0.00 60 1020.0
20260507214832 8 101 1.6 4.8 0.00 0.00 0.00 87 1022.0
20260507214715 8 101 1.6 4.8 0.00 0.00 0.00 87 1022.0
20260507213831 8 101 1.6 4.8 0.00 0.00 0.00 87 1022.0
20260507213714 8 101 1.6 4.8 0.00 0.00 0.00 87 1022.0
20260507212830 9 101 1.6 4.8 0.00 0.00 0.00 87 1021.0
20260507212712 9 101 1.6 4.8 0.00 0.00 0.00 87 1021.0
20260507211828 9 101 1.6 4.8 0.00 0.00 0.00 87 1021.0
20260507211711 9 101 1.6 4.8 0.00 0.00 0.00 87 1021.0
20260507210827 9 101 1.6 4.8 0.00 0.00 0.00 87 1021.0
20260507210712 9 101 1.6 4.8 0.00 0.00 0.00 87 1021.0
20260507205826 8 114 3.2 6.4 0.00 0.00 0.00 87 1021.0
20260507205707 8 114 3.2 6.4 0.00 0.00 0.00 87 1021.0
20260507204824 8 114 3.2 6.4 0.00 0.00 0.00 87 1021.0
20260507204707 8 114 3.2 6.4 0.00 0.00 0.00 87 1021.0
20260507203823 8 114 3.2 6.4 0.00 0.00 0.00 87 1021.0
20260507203705 8 114 3.2 6.4 0.00 0.00 0.00 87 1021.0
20260507202821 10 109 1.6 4.8 0.00 0.00 0.00 82 1021.0
20260507202703 10 109 1.6 4.8 0.00 0.00 0.00 82 1021.0
20260507201820 10 109 1.6 4.8 0.00 0.00 0.00 82 1021.0
20260507201702 10 109 1.6 4.8 0.00 0.00 0.00 82 1021.0
20260507200819 10 109 1.6 4.8 0.00 0.00 0.00 82 1021.0
20260507200701 10 109 1.6 4.8 0.00 0.00 0.00 82 1021.0
20260507195817 10 108 1.6 4.8 0.00 0.00 0.00 82 1021.0
20260507195659 10 108 1.6 4.8 0.00 0.00 0.00 82 1021.0
20260507194816 10 108 1.6 4.8 0.00 0.00 0.00 82 1021.0
20260507194657 10 108 1.6 4.8 0.00 0.00 0.00 82 1021.0
20260507193815 10 108 1.6 4.8 0.00 0.00 0.00 82 1021.0
20260507193656 10 108 1.6 4.8 0.00 0.00 0.00 82 1021.0
20260507192813 12 108 1.6 4.8 0.00 0.00 0.00 71 1021.0
20260507192654 12 108 1.6 4.8 0.00 0.00 0.00 71 1021.0
20260507191812 12 108 1.6 4.8 0.00 0.00 0.00 71 1021.0
20260507191653 12 108 1.6 4.8 0.00 0.00 0.00 71 1021.0
20260507190810 12 108 1.6 4.8 0.00 0.00 0.00 67 1021.0
20260507190651 12 108 1.6 4.8 0.00 0.00 0.00 67 1021.0
20260507185808 12 94 1.6 1.6 0.00 0.00 0.00 67 1021.0
20260507185649 12 94 1.6 1.6 0.00 0.00 0.00 67 1021.0
20260507184807 12 94 1.6 1.6 0.00 0.00 0.00 67 1021.0
20260507184648 12 94 1.6 1.6 0.00 0.00 0.00 67 1021.0
20260507183806 12 94 1.6 1.6 0.00 0.00 0.00 67 1021.0
20260507183647 12 94 1.6 1.6 0.00 0.00 0.00 67 1021.0
20260507182804 13 94 1.6 1.6 0.00 0.00 0.00 67 1021.0
20260507182645 13 94 1.6 1.6 0.00 0.00 0.00 67 1021.0
20260507181803 13 94 1.6 1.6 0.00 0.00 0.00 59 1020.0
20260507181643 13 94 1.6 1.6 0.00 0.00 0.00 59 1020.0
20260507180802 13 94 1.6 1.6 0.00 0.00 0.00 59 1020.0
20260507180642 13 94 1.6 1.6 0.00 0.00 0.00 59 1020.0
20260507175801 14 312 1.6 1.6 0.00 0.00 0.00 59 1020.0
20260507175641 14 312 1.6 1.6 0.00 0.00 0.00 59 1020.0
20260507174759 14 312 1.6 1.6 0.00 0.00 0.00 59 1020.0
20260507174640 14 312 1.6 1.6 0.00 0.00 0.00 59 1020.0
20260507173757 14 312 1.6 1.6 0.00 0.00 0.00 59 1020.0
20260507173638 14 312 1.6 1.6 0.00 0.00 0.00 59 1020.0
20260507172756 16 312 1.6 1.6 0.00 0.00 0.00 51 1020.0
20260507172637 16 312 1.6 1.6 0.00 0.00 0.00 51 1020.0
20260507171754 16 312 1.6 1.6 0.00 0.00 0.00 51 1020.0
20260507171635 16 312 1.6 1.6 0.00 0.00 0.00 51 1020.0
20260507170753 16 303 3.2 4.8 0.00 0.00 0.00 51 1020.0
20260507170633 16 303 3.2 4.8 0.00 0.00 0.00 51 1020.0
20260507165752 16 303 3.2 4.8 0.00 0.00 0.00 51 1020.0
20260507165632 16 303 3.2 4.8 0.00 0.00 0.00 51 1020.0
20260507164750 16 303 3.2 4.8 0.00 0.00 0.00 51 1020.0
20260507164631 16 303 3.2 4.8 0.00 0.00 0.00 51 1020.0
20260507163748 16 303 3.2 4.8 0.00 0.00 0.00 51 1020.0
20260507163629 16 303 3.2 4.8 0.00 0.00 0.00 51 1020.0
20260507162747 18 303 3.2 4.8 0.00 0.00 0.00 39 1020.0
20260507162628 18 303 3.2 4.8 0.00 0.00 0.00 39 1020.0
20260507161746 18 303 3.2 4.8 0.00 0.00 0.00 34 1020.0
20260507161627 18 303 3.2 4.8 0.00 0.00 0.00 34 1020.0
20260507160744 18 304 4.8 6.4 0.00 0.00 0.00 34 1020.0
20260507160625 18 304 4.8 6.4 0.00 0.00 0.00 34 1020.0
20260507155743 18 304 4.8 6.4 0.00 0.00 0.00 34 1020.0
20260507155623 18 304 4.8 6.4 0.00 0.00 0.00 34 1020.0
20260507154742 15 304 4.8 6.4 0.00 0.00 0.00 45 1018.0
20260507154622 15 304 4.8 6.4 0.00 0.00 0.00 45 1018.0
20260507153740 18 304 4.8 6.4 0.00 0.00 0.00 34 1020.0
20260507153620 18 304 4.8 6.4 0.00 0.00 0.00 34 1020.0
20260507152739 18 304 4.8 6.4 0.00 0.00 0.00 32 1020.0
20260507152619 18 304 4.8 6.4 0.00 0.00 0.00 32 1020.0
20260507151738 19 304 4.8 6.4 0.00 0.00 0.00 30 1020.0
20260507151617 19 304 4.8 6.4 0.00 0.00 0.00 30 1020.0
20260507150736 19 304 4.8 6.4 0.00 0.00 0.00 30 1020.0
20260507150615 19 304 4.8 6.4 0.00 0.00 0.00 30 1020.0
20260507145734 18 297 6.4 6.4 0.00 0.00 0.00 30 1020.0
20260507145614 18 297 6.4 6.4 0.00 0.00 0.00 30 1020.0
20260507144733 18 297 6.4 6.4 0.00 0.00 0.00 30 1020.0
20260507144612 18 297 6.4 6.4 0.00 0.00 0.00 30 1020.0
20260507143731 18 304 4.8 6.4 0.00 0.00 0.00 30 1020.0
20260507143611 18 304 4.8 6.4 0.00 0.00 0.00 30 1020.0
20260507142729 19 304 4.8 6.4 0.00 0.00 0.00 30 1020.0
20260507142609 19 304 4.8 6.4 0.00 0.00 0.00 30 1020.0
20260507141728 18 304 4.8 6.4 0.00 0.00 0.00 35 1020.0
20260507141608 18 304 4.8 6.4 0.00 0.00 0.00 35 1020.0
20260507140727 18 304 4.8 6.4 0.00 0.00 0.00 35 1020.0
20260507140606 18 304 4.8 6.4 0.00 0.00 0.00 35 1020.0
20260507135726 19 303 4.8 6.4 0.00 0.00 0.00 35 1020.0
20260507135605 19 303 4.8 6.4 0.00 0.00 0.00 35 1020.0
20260507134724 19 303 4.8 6.4 0.00 0.00 0.00 35 1020.0
20260507134604 19 303 4.8 6.4 0.00 0.00 0.00 35 1020.0
20260507133722 19 303 4.8 6.4 0.00 0.00 0.00 35 1020.0
20260507133602 19 303 4.8 6.4 0.00 0.00 0.00 35 1020.0
20260507132721 19 303 4.8 6.4 0.00 0.00 0.00 35 1020.0
20260507132600 19 303 4.8 6.4 0.00 0.00 0.00 35 1020.0
20260507131720 19 303 4.8 6.4 0.00 0.00 0.00 32 1020.0
20260507131559 19 303 4.8 6.4 0.00 0.00 0.00 32 1020.0
20260507130718 19 303 4.8 6.4 0.00 0.00 0.00 32 1020.0
20260507130557 19 303 4.8 6.4 0.00 0.00 0.00 32 1020.0
20260507125716 18 298 4.8 4.8 0.00 0.00 0.00 32 1020.0
20260507125555 18 298 4.8 4.8 0.00 0.00 0.00 32 1020.0
20260507124715 19 298 4.8 4.8 0.00 0.00 0.00 32 1020.0
20260507124554 19 298 4.8 4.8 0.00 0.00 0.00 32 1020.0
20260507123714 18 298 4.8 4.8 0.00 0.00 0.00 35 1020.0
20260507123553 18 298 4.8 4.8 0.00 0.00 0.00 35 1020.0
20260507122713 18 298 4.8 4.8 0.00 0.00 0.00 35 1020.0
20260507122552 18 298 4.8 4.8 0.00 0.00 0.00 35 1020.0